Location: Kellogg
(38.0159°N, 90.0546°W)
Time: 08:25:07
(UTC+00:00)

Altair - Pass Details

Date: 16 September 2024
Orbit: 1501 x 1682 km, 47.2° (Epoch: 07 October)

Event Time Altitude Azimuth Distance (km) Brightness Sun altitude
Rises 13:19:55 0° 299° (WNW) 4,934 9.6 18.1°
Reaches altitude 10° 13:23:07 10° 301° (WNW) 3,948 9.2 18.7°
Maximum altitude 13:33:20 75° 27° (NNE) 1,724 8.2 20.7°
Drops below altitude 10° 13:43:20 10° 112° (ESE) 3,875 11.7 22.6°
Sets 13:46:26 0° 115° (ESE) 4,839 11.5 23.1°
